SCP
-0 -0 -0 -0 -0 -0 -0 -0 -0 -0 0 0 -0 -0 -0 0 -0 -0 -0 -0 0 0 0 0 0 0 0 -0 -0 -0 -0 -0
-0 -0 -0 -0 -0 -0 -0 -0 -0 0 0 0 0 0 0 -0 -0 -0 -0 -0 0 0 0 0 0 0 -0 -0 -0 -0 -0 -0
-0 -0 -0 -0 -0 -0 -0 -0 0 0 0 0 0 0 0 -0 -0 -0 -0 -0 0 0 0 0 0 0 0 -0 -0 -0 -0 0
-0 -0 -0 -0 -0 -0 -0 -0 0 0 0 0 0 0 0 0 -0 -0 0 0 0 0 0 0 0 0 0 0 -0 -0 -0 -0
-0 -0 -0 -0 0 0 0 -0 0 0 0 0 0 0 0 0 0 0 0 0 0 0 0 0 0 -0 -0 0 0 0 0 -0
-0 -0 -0 -0 -0 -0 0 0 -0 -0 0 0 0 0 0 0 0 0 0 0 0 0 0 0 0 0 0 0 0 0 0 0
-0 -0 -0 -0 -0 -0 -0 0 0 0 0 0 0 0 0 0 0 0 0 0 0 0 0 0 0 0 0 0 0 0 0 0
-0 -0 -0 -0 -0 -0 -0 0 0 0 0 0 0 0 0 0 -0 0 0 0 1 0 0 0 0 0 0 0 0 0 0 0
-0 -0 -0 -0 -0 -0 0 0 0 0 0 0 0 0 0 0 0 0 0 0 1 1 0 0 0 0 0 0 0 0 0 0
-0 -0 -0 -0 -0 -0 -0 0 0 0 0 0 0 0 0 0 0 0 0 0 0 0 0 0 0 0 0 1 0 0 0 0
0 0 -0 0 1 0 0 0 0 0 0 0 0 0 0 0 0 0 0 0 0 0 0 0 0 0 0 0 0 0 0 0
3 1 1 1 1 1 1 2 1 1 1 1 0 0 0 0 0 0 0 0 0 0 0 0 0 0 0 1 1 1 0 1
2 3 2 2 1 1 1 2 2 1 1 1 1 1 0 1 0 1 0 0 0 0 0 0 0 0 0 1 1 0 0 0
4 3 3 2 1 1 1 1 1 1 1 1 1 1 1 1 1 1 1 1 0 1 0 0 0 0 1 0 0 0 0 0
2 2 2 3 2 1 1 1 1 1 1 1 1 1 1 1 1 1 0 0 0 0 1 1 1 0 0 0 0 0 0 0
1 1 2 2 4 3 3 2 1 1 1 1 1 0 0 1 1 2 2 1 1 0 0 0 0 0 0 0 0 0 0 0
1 1 1 2 2 3 3 3 3 2 2 1 1 1 1 0 0 0 0 1 1 0 0 0 0 0 0 0 0 0 0 0
1 1 1 1 1 1 2 2 3 3 2 1 1 0 0 0 0 0 0 0 0 0 0 0 0 0 0 0 0 0 0 0
1 1 1 1 1 1 1 1 1 1 1 1 1 0 0 0 0 0 0 0 0 0 0 0 0 0 0 0 0 0 0 0
Wind_Speed_500mb
44 43 41 37 35 34 33 31 29 28 28 27 27 27 26 26 25 24 23 23 22 21 20 20 20 19 19 20 21 23 22 24
46 42 39 35 33 31 31 30 28 27 26 25 24 23 22 21 20 18 17 16 16 15 14 12 11 10 9 11 13 15 20 19
39 40 39 35 32 30 28 28 27 26 24 23 21 19 18 17 16 13 12 11 10 8 7 5 5 5 6 8 8 10 16 15
23 29 36 37 33 30 28 26 25 24 22 20 19 17 15 14 13 11 9 7 5 3 3 5 8 7 5 4 4 5 9 10
19 23 32 35 34 31 29 26 24 22 20 19 17 16 14 12 11 9 7 5 3 1 1 5 8 9 6 6 9 5 2 5
29 20 29 34 34 31 29 27 25 22 20 19 17 15 13 11 9 4 6 6 7 6 6 4 4 8 6 6 9 12 10 5
40 33 20 30 31 29 26 21 17 17 17 17 17 17 15 12 14 2 6 11 14 17 15 11 4 4 9 7 11 12 13 16
40 38 25 24 22 16 25 20 8 10 16 16 17 17 17 12 14 5 16 24 16 13 22 13 15 13 14 16 20 18 16 21
48 43 35 21 25 14 15 19 8 3 16 6 8 12 16 25 17 13 22 26 20 27 22 17 16 20 19 20 23 22 31 16
68 53 41 27 30 35 33 28 14 7 7 5 8 8 8 18 26 23 24 32 30 23 22 28 32 32 33 32 25 29 39 24
57 49 40 33 43 45 28 29 20 14 12 15 15 18 19 17 24 33 34 33 39 29 30 27 30 30 28 25 29 34 48 40
46 33 31 33 40 40 42 38 40 33 17 27 23 23 24 27 28 28 36 38 32 35 35 42 41 40 41 35 31 42 48 38
34 34 23 22 25 28 28 52 46 45 48 41 31 36 38 36 37 34 39 39 35 34 33 37 40 41 43 39 44 42 37 37
30 28 32 10 19 31 28 26 58 43 35 33 30 30 36 41 35 36 36 43 34 26 35 41 45 48 51 49 51 54 52 57
29 30 40 27 13 21 25 19 23 24 28 28 27 31 34 35 37 39 31 26 29 35 39 41 43 46 47 45 50 56 58 59
32 30 26 37 20 19 24 23 22 26 27 32 32 34 30 28 29 30 25 32 33 37 41 43 50 51 49 50 53 62 65 57
31 30 26 29 37 32 30 26 17 21 31 30 35 37 29 36 34 32 29 39 41 40 36 39 42 48 48 44 45 47 52 36
30 33 31 28 33 34 37 37 25 22 20 21 20 24 24 22 21 26 32 38 37 39 36 31 33 37 43 42 32 26 20 18
19 20 26 32 35 25 23 27 31 27 23 14 8 8 11 18 24 19 18 23 26 28 32 35 34 34 36 42 41 35 33 41
Wind_Direction_500mb
147 144 143 144 140 135 132 129 125 122 119 115 113 113 113 109 108 109 110 110 111 112 114 116 115 112 107 104 106 120 113 111
148 148 145 145 143 139 137 135 134 131 127 123 122 121 120 117 115 114 118 120 117 116 120 126 122 114 105 101 104 128 125 122
148 152 149 149 148 145 146 143 142 140 138 134 132 130 128 125 124 127 130 125 118 117 114 104 68 63 64 70 80 111 153 129
148 164 157 155 155 153 154 152 150 149 148 147 146 145 147 146 147 149 146 141 133 118 93 69 50 32 38 52 79 117 164 210
174 191 173 165 164 163 162 162 161 160 160 162 163 166 167 169 170 176 182 190 195 196 349 48 63 64 78 69 53 54 227 208
175 163 188 178 172 172 173 171 173 174 175 177 180 184 187 188 191 225 245 261 281 307 316 345 83 78 72 38 355 340 315 284
183 173 151 192 183 181 181 178 181 189 192 193 196 198 200 210 201 128 277 290 306 317 314 314 324 283 354 3 344 309 307 321
193 184 176 163 169 195 159 164 178 239 220 218 217 215 204 191 205 265 302 316 313 339 339 308 300 314 303 302 331 330 324 306
197 187 173 174 167 199 187 206 216 230 187 158 224 220 218 209 215 238 252 284 301 301 302 324 314 330 305 303 300 294 321 295
185 180 175 172 164 188 219 210 211 222 223 235 271 270 269 235 209 206 241 260 269 293 292 285 296 302 299 292 289 287 308 303
171 172 177 180 174 190 193 209 211 234 248 244 249 268 278 277 234 221 225 237 246 266 277 285 297 297 302 309 294 309 304 290
149 161 182 190 196 202 206 192 196 201 199 224 239 249 262 262 267 261 238 242 243 243 254 252 257 267 272 285 302 282 281 285
146 135 161 198 217 231 226 219 208 206 214 221 224 241 252 253 262 276 261 250 250 253 256 262 262 262 265 273 270 288 280 300
175 180 172 155 226 238 243 235 222 220 221 226 229 243 252 256 269 275 280 254 256 257 262 270 264 264 267 270 276 280 279 285
175 183 194 184 181 223 239 258 236 229 227 242 238 250 248 256 261 267 285 270 267 260 268 265 267 273 276 272 274 278 287 294
197 196 187 207 202 178 207 230 233 239 243 238 246 254 249 230 220 225 236 238 247 258 262 267 267 273 277 282 282 286 291 296
194 193 195 210 210 221 210 198 213 237 239 235 239 235 221 203 209 221 231 236 245 251 261 267 276 282 287 294 309 307 302 300
208 212 199 207 214 222 230 226 211 224 190 186 188 210 198 205 212 245 264 246 254 260 267 287 299 310 308 301 304 312 308 303
154 168 186 200 216 214 225 225 215 216 215 209 231 267 280 289 291 290 287 276 282 286 291 294 302 306 307 310 315 319 311 305
Wind_Speed_850mb
44 43 41 37 35 34 33 31 29 28 28 27 27 27 26 26 25 24 23 23 22 21 20 20 20 19 19 20 21 23 22 24
46 42 39 35 33 31 31 30 28 27 26 25 24 23 22 21 20 18 17 16 16 15 14 12 11 10 9 11 13 15 20 19
39 40 39 35 32 30 28 28 27 26 24 23 21 19 18 17 16 13 12 11 10 8 7 5 5 5 6 8 8 10 16 15
23 29 36 37 33 30 28 26 25 24 22 20 19 17 15 14 13 11 9 7 5 3 3 5 8 7 5 4 4 5 9 10
19 23 32 35 34 31 29 26 24 22 20 19 17 16 14 12 11 9 7 5 3 1 1 5 8 9 6 6 9 5 2 5
29 20 29 34 34 31 29 27 25 22 20 19 17 15 13 11 9 4 6 6 7 6 6 4 4 8 6 6 9 12 10 5
40 33 20 30 31 29 26 21 17 17 17 17 17 17 15 12 14 2 6 11 14 17 15 11 4 4 9 7 11 12 13 16
40 38 25 24 22 16 25 20 8 10 16 16 17 17 17 12 14 5 16 24 16 13 22 13 15 13 14 16 20 18 16 21
48 43 35 21 25 14 15 19 8 3 16 6 8 12 16 25 17 13 22 26 20 27 22 17 16 20 19 20 23 22 31 16
68 53 41 27 30 35 33 28 14 7 7 5 8 8 8 18 26 23 24 32 30 23 22 28 32 32 33 32 25 29 39 24
57 49 40 33 43 45 28 29 20 14 12 15 15 18 19 17 24 33 34 33 39 29 30 27 30 30 28 25 29 34 48 40
46 33 31 33 40 40 42 38 40 33 17 27 23 23 24 27 28 28 36 38 32 35 35 42 41 40 41 35 31 42 48 38
34 34 23 22 25 28 28 52 46 45 48 41 31 36 38 36 37 34 39 39 35 34 33 37 40 41 43 39 44 42 37 37
30 28 32 10 19 31 28 26 58 43 35 33 30 30 36 41 35 36 36 43 34 26 35 41 45 48 51 49 51 54 52 57
29 30 40 27 13 21 25 19 23 24 28 28 27 31 34 35 37 39 31 26 29 35 39 41 43 46 47 45 50 56 58 59
32 30 26 37 20 19 24 23 22 26 27 32 32 34 30 28 29 30 25 32 33 37 41 43 50 51 49 50 53 62 65 57
31 30 26 29 37 32 30 26 17 21 31 30 35 37 29 36 34 32 29 39 41 40 36 39 42 48 48 44 45 47 52 36
30 33 31 28 33 34 37 37 25 22 20 21 20 24 24 22 21 26 32 38 37 39 36 31 33 37 43 42 32 26 20 18
19 20 26 32 35 25 23 27 31 27 23 14 8 8 11 18 24 19 18 23 26 28 32 35 34 34 36 42 41 35 33 41
Wind_Direction_850mb
147 144 143 144 140 135 132 129 125 122 119 115 113 113 113 109 108 109 110 110 111 112 114 116 115 112 107 104 106 120 113 111
148 148 145 145 143 139 137 135 134 131 127 123 122 121 120 117 115 114 118 120 117 116 120 126 122 114 105 101 104 128 125 122
148 152 149 149 148 145 146 143 142 140 138 134 132 130 128 125 124 127 130 125 118 117 114 104 68 63 64 70 80 111 153 129
148 164 157 155 155 153 154 152 150 149 148 147 146 145 147 146 147 149 146 141 133 118 93 69 50 32 38 52 79 117 164 210
174 191 173 165 164 163 162 162 161 160 160 162 163 166 167 169 170 176 182 190 195 196 349 48 63 64 78 69 53 54 227 208
175 163 188 178 172 172 173 171 173 174 175 177 180 184 187 188 191 225 245 261 281 307 316 345 83 78 72 38 355 340 315 284
183 173 151 192 183 181 181 178 181 189 192 193 196 198 200 210 201 128 277 290 306 317 314 314 324 283 354 3 344 309 307 321
193 184 176 163 169 195 159 164 178 239 220 218 217 215 204 191 205 265 302 316 313 339 339 308 300 314 303 302 331 330 324 306
197 187 173 174 167 199 187 206 216 230 187 158 224 220 218 209 215 238 252 284 301 301 302 324 314 330 305 303 300 294 321 295
185 180 175 172 164 188 219 210 211 222 223 235 271 270 269 235 209 206 241 260 269 293 292 285 296 302 299 292 289 287 308 303
171 172 177 180 174 190 193 209 211 234 248 244 249 268 278 277 234 221 225 237 246 266 277 285 297 297 302 309 294 309 304 290
149 161 182 190 196 202 206 192 196 201 199 224 239 249 262 262 267 261 238 242 243 243 254 252 257 267 272 285 302 282 281 285
146 135 161 198 217 231 226 219 208 206 214 221 224 241 252 253 262 276 261 250 250 253 256 262 262 262 265 273 270 288 280 300
175 180 172 155 226 238 243 235 222 220 221 226 229 243 252 256 269 275 280 254 256 257 262 270 264 264 267 270 276 280 279 285
175 183 194 184 181 223 239 258 236 229 227 242 238 250 248 256 261 267 285 270 267 260 268 265 267 273 276 272 274 278 287 294
197 196 187 207 202 178 207 230 233 239 243 238 246 254 249 230 220 225 236 238 247 258 262 267 267 273 277 282 282 286 291 296
194 193 195 210 210 221 210 198 213 237 239 235 239 235 221 203 209 221 231 236 245 251 261 267 276 282 287 294 309 307 302 300
208 212 199 207 214 222 230 226 211 224 190 186 188 210 198 205 212 245 264 246 254 260 267 287 299 310 308 301 304 312 308 303
154 168 186 200 216 214 225 225 215 216 215 209 231 267 280 289 291 290 287 276 282 286 291 294 302 306 307 310 315 319 311 305